Printer-friendly version

IAU Minor Planet Center

Minor Planet Center

MPEC 2000-Y12: 2000 FE8

The following Minor Planet Electronic Circular may be linked-to from your own Web pages, but must not otherwise be redistributed electronically.


Read MPEC 2000-Y11 Read MPEC 2000-Y13


M.P.E.C. 2000-Y12                                Issued 2000 Dec. 19, 16:37 UT

     The Minor Planet Electronic Circulars contain information on unusual
         minor planets and routine data on comets.  They are published
   on behalf of Commission 20 of the International Astronomical Union by the
          Minor Planet Center, Smithsonian Astrophysical Observatory,
                          Cambridge, MA 02138, U.S.A.

             Prepared using the Tamkin Foundation Computer Network

                              MPC@CFA.HARVARD.EDU
          URL http://cfa-www.harvard.edu/iau/mpc.html  ISSN 1523-6714

                                   2000 FE8

                           Revision to MPEC 2000-F46

Observations:
     K00F08E 8C2000 12 16.47809 12 31 33.70 -03 46 12.9          21.6 R      695
     K00F08E 8C2000 12 16.50292 12 31 33.77 -03 46 13.5          21.6 R      695
     K00F08E 8C2000 12 16.52705 12 31 33.81 -03 46 13.9          21.5 R      695
     K00F08E 8C2000 12 17.48679 12 31 36.22 -03 46 31.8                      695

Observer details:
695 Kitt Peak.  Observers M. Holman, B. Gladman, T. Grav.  4-m reflector + CCD.

First and last observations above in comparison with prediction:
Residuals in seconds of arc and reference
001216 695  3.9-  1.0+    001217 695  4.0-  1.1+    MPO  7520

Orbital elements:
2000 FE8
Epoch 2001 Apr. 1.0 TT = JDT 2452000.5                  Marsden
M  16.77708              (2000.0)            P               Q
n   0.00240263     Peri.  143.00448     -0.83766030     -0.54614698
a  55.2092420      Node     3.91198     +0.47344426     -0.73240400
e   0.4016823      Incl.    5.87103     +0.27235227     -0.40658069
P 410              H    6.7           G   0.15           U   5
Residuals in seconds of arc
000327 568  0.3-  0.2+    000502 568  0.1-  0.9-    000629 950  0.1-  0.2+
000329 568  0.1+  0.1-    000526 695  0.0   0.1+    000807 809  0.5+  0.5+
000329 568  0.1+  0.1-    000526 695  0.0   0.0     000808 809  0.2+  0.4+
000329 568  0.2+  0.2-    000526 695  0.0   0.0     000808 809  0.1+  0.5+
000330 568  0.1+  0.4+    000527 695  0.2-  0.1-    001216 695  0.0   0.1-
000330 568  0.1+  0.4+    000527 695  0.2-  0.1-    001216 695  0.1+  0.2-
000330 568  0.1-  0.2+    000527 695  0.0   0.1+    001216 695  0.2-  0.2-
000502 568  0.2-  1.0-    000629 950  0.1+  0.1+    001217 695  0.1-  0.0

Ephemeris:
2000 FE8                 a,e,i = 55.21, 0.40, 6                  q = 33.033
Date    TT    R. A. (2000) Decl.     Delta      r     Elong.  Phase     V
2000 12 12    12 31.35   -03 44.7   35.738   35.439    71.6     1.5    22.4
2000 12 22    12 31.77   -03 47.8   35.575   35.446    81.6     1.6    22.4
2001 01 01    12 32.01   -03 49.8   35.408   35.452    91.8     1.6    22.4
2001 01 11    12 32.07   -03 50.7   35.242   35.459   101.9     1.6    22.4
2001 01 21    12 31.95   -03 50.4   35.083   35.465   112.2     1.5    22.4
2001 01 31    12 31.66   -03 49.0   34.934   35.472   122.4     1.3    22.4
2001 02 10    12 31.21   -03 46.6   34.803   35.479   132.6     1.2    22.3
2001 02 20    12 30.63   -03 43.2   34.691   35.485   142.9     1.0    22.3
2001 03 02    12 29.93   -03 39.2   34.605   35.492   153.1     0.7    22.3
2001 03 12    12 29.14   -03 34.5   34.545   35.498   163.4     0.5    22.2
2001 03 22    12 28.30   -03 29.5   34.515   35.505   173.5     0.2    22.2
2001 04 01    12 27.44   -03 24.4   34.514   35.512   176.3     0.1    22.2
2001 04 11    12 26.59   -03 19.3   34.544   35.518   166.3     0.4    22.2
2001 04 21    12 25.79   -03 14.4   34.603   35.525   156.3     0.7    22.3
2001 05 01    12 25.07   -03 10.0   34.689   35.532   146.3     0.9    22.3
2001 05 11    12 24.44   -03 06.3   34.799   35.538   136.5     1.1    22.3
2001 05 21    12 23.94   -03 03.3   34.931   35.545   126.7     1.3    22.4
2001 05 31    12 23.59   -03 01.3   35.080   35.552   117.0     1.5    22.4
2001 06 10    12 23.39   -03 00.2   35.242   35.558   107.4     1.6    22.4
2001 06 20    12 23.35   -03 00.2   35.413   35.565    97.8     1.6    22.4
2001 06 30    12 23.49   -03 01.3   35.587   35.572    88.3     1.6    22.4
2001 07 10    12 23.79   -03 03.5   35.761   35.578    78.9     1.6    22.4
2001 07 20    12 24.25   -03 06.7   35.929   35.585    69.5     1.5    22.4
2001 07 30    12 24.87   -03 10.9   36.088   35.592    60.1     1.4    22.4
2001 08 09    12 25.62   -03 15.9   36.232   35.599    50.7     1.3    22.4
2001 08 19    12 26.49   -03 21.8   36.359   35.605    41.3     1.1    22.4
2001 08 29    12 27.48   -03 28.4   36.465   35.612    32.0     0.9    22.4

Brian G. Marsden             (C) Copyright 2000 MPC           M.P.E.C. 2000-Y12

Read MPEC 2000-Y11 Read MPEC 2000-Y13


Our Web policy. Index to the CBAT/MPC/ICQ pages.


Valid HTML 4.01!